Location: Goettingen
(51.5300°N, 9.9433°E)
Time: 10:11:14
(UTC+01:00)

ISS - Pass Details

Date: 24 March 2023
Orbit: 414 x 423 km, 51.6° (Epoch: 20 March)

Event Time Altitude Azimuth Distance (km) Brightness Sun altitude
Rises 21:53:01 0° 284° (WNW) 2,359 0.9 -27.8°
Reaches altitude 10° 21:55:10 10° 277° (W) 1,493 -0.4 -28.0°
Enters shadow 21:55:40 13° 275° (W) 1,298 -0.8 -28.1°
